Regional Weather Roundup
Issued by NWS

Home | Current Version | Previous Version | Graphics & Text | Print | Product List | Glossary On
Versions: 1 2 3 4 5 6 7 8 9 10 11 12 13 14 15 16 17 18 19 20 21 22 23 24 25 26 27 28 29 30 31 32 33 34 35 36 37 38 39 40 41 42 43 44 45 46 47 48 49 50
000
ASUS43 KMKX 091000
RWRWI

WISCONSIN REGIONAL WEATHER ROUNDUP
NATIONAL WEATHER SERVICE MILWAUKEE/SULLIVAN WI
400 AM CST TUE FEB 09 2016

NOTE: "FAIR" INDICATES FEW OR NO CLOUDS BELOW 12,000 FEET WITH NO
SIGNIFICANT WEATHER AND/OR OBSTRUCTIONS TO VISIBILITY.

WIZ001-002-006>008-014>016-023>028-091100-
NORTHWEST WISCONSIN

CITY           SKY/WX    TMP DP  RH WIND       PRES   REMARKS
SUPERIOR ARPT  MOCLDY     5  -3  69 N7        30.04R WCI  -7
ASHLAND        CLOUDY     8   5  87 NW6       29.94R FOG     WCI  -2
HAYWARD        CLOUDY     3  -2  79 VRB6      29.93R WCI  -8
SIREN          CLEAR      4  -3  72 N10       30.00S WCI -12
CUMBERLAND     CLOUDY     5  -2  72 NW15G23   29.93S WCI -13
RICE LAKE      PTCLDY     4  -2  76 NW8       29.96R WCI  -9
CHETEK         MOCLDY     4  -2  76 NW7       29.94R WCI  -8
LADYSMITH      CLOUDY     7   1  77 NW13G22   29.88S WCI  -9
EAU CLAIRE     NOT AVBL
MENOMONIE      CLOUDY     7  -1  68 NW13G18   29.97R WCI  -9
NEW RICHMOND   MOCLDY     6  -1  71 NW18      29.99R WCI -13
OSCEOLA        MOCLDY     7  -1  71 N13G18    30.04R WCI  -9
$$

WIZ003>005-009-010-017-018-091100-
NORTH CENTRAL WISCONSIN

CITY           SKY/WX    TMP DP  RH WIND       PRES   REMARKS
MANITOWISH WTR LGT SNOW  10   6  83 N9        29.76S WCI  -3
ARBOR VITAE    LGT SNOW  11   6  80 N15       29.74S WCI  -5
WOODRUFF       LGT SNOW  11   6  80 N15       29.74S WCI  -5
RHINELANDER    LGT SNOW  10   4  76 N8        29.74R WCI  -2
EAGLE RIVER    LGT SNOW  10   3  73 N14G24    29.72S WCI  -6
LAND O LAKES   LGT SNOW  10   6  82 N12G18    29.73S WCI  -4
PHILLIPS       LGT SNOW   7   3  82 NW9G16    29.79S WCI  -6
TOMAHAWK       LGT SNOW   8   4  82 NW7       29.77S WCI  -3
MEDFORD        FLURRIES   6   1  82 NW10G16   29.79S WCI  -9
MERRILL        LGT SNOW   9   4  80 NW8       29.78S WCI  -3
$$

WIZ029-030-035-036-043>047-091100-
CENTRAL WISCONSIN

CITY           SKY/WX    TMP DP  RH WIND       PRES   REMARKS
WAUSAU         FLURRIES   9   3  77 NW10      29.78R WCI  -5
MOSINEE        FLURRIES   9   5  85 NW10      29.79S WCI  -6
MARSHFIELD     CLOUDY     7   0  73 NW18      29.80S WCI -12
STEVENS POINT  FLURRIES   7   1  78 NW8       29.80S WCI  -6
WAUPACA        FLURRIES  13   6  72 NW9       29.79F WCI   1
WAUTOMA        NOT AVBL
WISC RAPIDS    MOCLDY     8   0  69 NW10      29.84R WCI  -6
CAMP DOUGLAS   NOT AVBL
$$

WIZ011>013-019>022-031-037>040-048>050-091100-
NORTHEAST WISCONSIN

CITY           SKY/WX    TMP DP  RH WIND       PRES   REMARKS
ANTIGO         FLURRIES   7   4  85 NW9       29.73S WCI  -6
SHAWANO        FLURRIES  15   9  77 W6        29.78S WCI   6
OCONTO         CLOUDY    16   7  69 N9        29.76S WCI   4
STURGEON BAY   CLOUDY    16   5  62 N14G23    29.75R WCI   1
GREEN BAY      LGT SNOW  15  11  83 NW7       29.76S FOG     WCI   5
MANITOWOC      NOT AVBL
APPLETON       FLURRIES  12   5  73 W12       29.74S WCI  -2
CLINTONVILLE   FLURRIES  14   7  73 NW12      29.77S WCI   0
OSHKOSH        CLOUDY    13   5  70 NW13      29.76S WCI  -2
$$

WIZ032>034-041-042-053>061-091100-
SOUTHWEST WISCONSIN

CITY           SKY/WX    TMP DP  RH WIND       PRES   REMARKS
LA CROSSE      MOCLDY     9   0  67 N12       29.94R WCI  -6
SPARTA         PTCLDY     8   2  74 NW5       29.90S WCI   0
VIROQUA        MOCLDY     8   1  75 N16       29.84S WCI -10
BOSCOBEL       CLEAR     12   2  64 N12G24    29.89S WCI  -2
PRAIRIE DU CHI CLOUDY    13   2  62 NW13G18   29.90F WCI  -1
PLATTEVILLE    PTCLDY    11   6  79 NW14G21   29.83R WCI  -4
$$

WIZ056-057-062-063-064-067-068-091100-
SOUTH CENTRAL WISCONSIN

CITY           SKY/WX    TMP DP  RH WIND       PRES   REMARKS
REEDSBURG      PTCLDY     9   2  74 NW13G21   29.84R WCI  -6
BARABOO/DELLS  CLOUDY     9   3  74 NW13G20   29.82S WCI  -6
LONE ROCK      NOT AVBL
MINERAL POINT  FLURRIES  12   7  79 NW12      29.81R WCI  -2
MADISON        FLURRIES  11   5  77 NW14G23   29.80R WCI  -5
MIDDLETON      CLOUDY    13   8  78 NW17      29.80S WCI  -3
WATERTOWN      FLURRIES  13   9  83 NW12G22   29.77R WCI  -1
MONROE         FLURRIES  14   9  79 N10G22    29.78R WCI   1
JANESVILLE     LGT SNOW  18  12  79 NW15      29.77S WCI   3
$$

WIZ051-052-058>065-066-070>072-091100-
SOUTHEAST WISCONSIN

CITY           SKY/WX    TMP DP  RH WIND       PRES   REMARKS
MILWAUKEE      FLURRIES  18  12  77 NW12      29.73S WCI   5
WAUKESHA       FLURRIES  14  10  85 NW14G20   29.74R WCI  -1
MILWAUKEE/TIMM LGT SNOW  18  10  73 NW16      29.75R WCI   3
RACINE         LGT SNOW  18  12  77 NW12      29.74R WCI   5
BURLINGTON     LGT SNOW  15  10  81 NW14      29.74S WCI   0
KENOSHA        LGT SNOW  17  12  80 NW12      29.73R WCI   4
FOND DU LAC    FLURRIES  13   8  81 NW17      29.76S WCI  -4
SHEBOYGAN      FLURRIES  15   9  76 NW10      29.74R WCI   2
WEST BEND      LGT SNOW  16  10  79 NW14      29.73S WCI   1
JUNEAU         FLURRIES  12   7  81 NW14G22   29.77R WCI  -4
$$

LSZ147-162-091100-
LAKE SUPERIOR

STATION/POSITION TIME  TEMP    WIND        PRES    WAVE
                       AIR SEA DIR/SP/G            HT/PER
                 (UTC) (F)     (DEG/KT/KT) (MB)    (FT/S)
DEVILS ISLAND    0900   12     350/ 25/ 31 1015.3R
PORT WING        0940   11     340/ 18/ 25 1015.6R
SAXON HARBOR     0940   15                 1012.2R
$$

LMZ867-665-643>646-091100-
LAKE MICHIGAN

STATION/POSITION TIME  TEMP    WIND        PRES    WAVE
                       AIR SEA DIR/SP/G            HT/PER
                 (UTC) (F)     (DEG/KT/KT) (MB)    (FT/S)
CHAMBERS ISLAND  0940   16     310/ 16/ 21 1007.1R
NORTHPORT PIER   0805   17     320/ 21     1006.4R
ALGOMA LAKESHORE 0941          330/ 12/ 16   N/A
KEWAUNEE LAKESHO 0900   16     320/  9/ 15 1006.4S
SHEBOYGAN LAKESH 0900   18     330/ 14/ 16 1008.1R
PORT WASHINGTON  0940   17     320/  8/ 14 1008.5R
MILWAUKEE LAKESH 0910   19     320/  9/ 12   N/A
KENOSHA   LAKESH 0900   18     310/ 12/ 19 1006.4S
$$

TC  - TEMPERATURE IN CELSIUS
VSB - VISIBILITY IN STATUTE MILES
WCI - WIND CHILL INDEX
HX  - HEAT INDEX




USA.gov is the U.S. government's official web portal to all federal, state and local government web resources and services.